Regional Weather Roundup
Issued by NWS

Home | Current Version | Previous Version | Text Only | Print | Product List | Glossary On
Versions: 1 2 3 4 5 6 7 8 9 10 11 12 13 14 15 16 17 18 19 20 21 22 23 24 25 26 27
000
ASUS44 KBMX 261610
RWRAL

ALABAMA REGIONAL WEATHER ROUNDUP
NATIONAL WEATHER SERVICE BIRMINGHAM AL
1100 AM CDT WED JUL 26 2017

NOTE: "FAIR" INDICATES FEW OR NO CLOUDS BELOW 12,000 FEET
WITH NO SIGNIFICANT WEATHER AND/OR OBSTRUCTIONS TO VISIBILITY.

THE REMARK "TC" DENOTES TEMPERATURE IN DEGREES CELSIUS.

ALZ001>011-014-016>018-020-261700-
NORTH ALABAMA

CITY           SKY/WX    TMP DP  RH WIND       PRES   REMARKS
MUSCLE SHOALS  SUNNY     91  74  57 W7        30.14S HX 100
HUNTSVILLE     PTSUNNY   90  77  65 CALM      30.14S HX 103
DECATUR        SUNNY     88  78  72 CALM      30.14R HX 101
HALEYVILLE     NOT AVBL
GADSDEN        SUNNY     88  75  65 N3        30.14R HX  97
$$

ALZ012-013-022-023-030>036-040>044-261700-
WEST CENTRAL ALABAMA

CITY           SKY/WX    TMP DP  RH WIND       PRES   REMARKS
TUSCALOOSA     SUNNY     88  79  74 VRB3      30.12S HX 103
DEMOPOLIS        N/A     86  73  64 CALM      30.13F HX  93
$$

ALZ015-024>026-033>036-041>044-261700-
CENTRAL ALABAMA

CITY           SKY/WX    TMP DP  RH WIND       PRES   REMARKS
BIRMINGHAM     MOSUNNY   88  74  63 VRB5      30.16R HX  96
MONTGOMERY     MOSUNNY   90  76  63 N5        30.11F HX 101
SHELBY CO ARPT PTSUNNY   88  77  69 CALM      30.13S HX 100
MAXWELL AFB    MOSUNNY   88  77  70 VRB3      30.10F HX 100
GREENVILLE     FAIR      85  75  72 W5        30.12F HX  93
SELMA          FAIR      88  75  66 VRB5      30.12S HX  97
PRATTVILLE     FAIR      87  78  74 CALM      30.11S HX 100
BESSEMER       FAIR      87  77  72 CALM      30.15R HX  99
TALLADEGA      FAIR      87  75  67 MISG      30.13S HX  97
PELL CITY      SUNNY     88  77  70 CALM      30.13S HX 100
MARION         PTSUNNY   87  77  72 W3        30.12S HX  98
SYLACAUGA      FAIR      89  77  69 CALM      30.13S HX 101
$$

ALZ019-021-028-029-037-038-045>048-261700-
EAST CENTRAL ALABAMA

CITY           SKY/WX    TMP DP  RH WIND       PRES   REMARKS
ANNISTON       SUNNY     87  75  67 CALM      30.13S HX  96
ALEXANDER CITY SUNNY     87  74  65 NE3       30.13F HX  95
AUBURN         SUNNY     88  75  65 NE5       30.14F HX  97
$$

ALZ051>064-261700-
SOUTHWEST ALABAMA

CITY           SKY/WX    TMP DP  RH WIND       PRES   REMARKS
MOBILE         PTSUNNY   86  75  69 N7        30.14F HX  95
BROOKLEY FIELD SUNNY     85  79  82 NE5       30.14F HX  98
EVERGREEN      CLOUDY    85  77  77 NW5       30.14S HX  95
$$

ALZ049-050-065>069-261700-
SOUTHEAST ALABAMA

CITY           SKY/WX    TMP DP  RH WIND       PRES   REMARKS
DOTHAN         MOSUNNY   85  78  80 CALM      30.15F HX  96
OZARK          PTSUNNY   86  77  74 NW3       30.11F HX  97
TROY           MOSUNNY   87  77  72 CALM      30.12F HX  99
EUFAULA        FAIR      88  78  72 MISG      30.10S HX 101
$$




USA.gov is the U.S. government's official web portal to all federal, state and local government web resources and services.